Zurück zum Katalog

NAVSTAR 32

USA 91

AktivNavigationMEO
NORAD 22657·PAYLOAD·🇺🇸 United States

Gestartet May 13, 1993 von Cape Canaveral Space Force Station

Loading…

Nächste Überflüge (nächste 24 Stunden)

TLE

AktuellSource: Space-Track

Epoche: Sep 9, 2026, 04:17 UTC

1 22657U 93032A   26252.17892161 -.00000003  00000-0  00000+0 0  9994
2 22657  53.4405 277.5868 0037502  95.2283 262.2912  1.87695960235470

Verfolge NAVSTAR 32 in Echtzeit mit AllMySat

Download on the App Store